Regional Weather Roundup
Issued by NWS

Home | Current Version | Previous Version | Graphics & Text | Print | Product List | Glossary On
Versions: 1 2 3 4 5 6 7 8 9 10 11 12 13 14 15 16 17 18 19 20 21 22 23 24 25 26 27 28 29 30 31 32 33 34 35 36 37 38 39 40 41 42 43 44 45 46 47 48 49 50
000
ASUS44 KMEG 310000
RWRTN
TENNESSEE HOURLY STATE WEATHER ROUNDUP
NATIONAL WEATHER SERVICE MEMPHIS TN
700 PM CDT WED JUL 30 2014

TNZ002-004-019-021-049-052-054-088>092-310100-
WEST TENNESSEE

CITY           SKY/WX    TMP DP  RH WIND       PRES   REMARKS
MEMPHIS INTL   CLOUDY    79  57  46 NW6       30.06F
NWS MEMPHIS      N/A     78 N/A N/A MISG        N/A
JACKSON        CLOUDY    76  63  64 CALM      30.07S
DYERSBURG      CLOUDY    79  55  44 CALM      30.07F
UNION CITY     PTSUNNY   75  63  64 CALM      30.06F
PARIS          SUNNY     73  59  60 CALM      30.08F
LEXINGTON      SUNNY     73  63  68 CALM      30.07S
SAVANNAH       SUNNY     75  64  69 CALM      30.08S
$$

TNZ008-025-027-028-033-062-065-066-310100-
NORTH MIDDLE TENNESSEE

CITY           SKY/WX    TMP DP  RH WIND       PRES   REMARKS
NASHVILLE      CLOUDY    78  54  43 NW6       30.07S
CLARKSVILLE    PTSUNNY   78  55  44 W6        30.07S
COOKEVILLE     CLEAR     73  68  83 CALM      30.09S
CROSSVILLE     CLOUDY    70  60  70 W3        30.13R
$$

TNZ061-075-076-078-094-096-097-310100-
SOUTH MIDDLE TENNESSEE

CITY           SKY/WX    TMP DP  RH WIND       PRES   REMARKS
FAYETTEVILLE   CLEAR     73  55  53 N9        30.08S
WINCHESTER     CLEAR     73  59  60 N3        30.09R
SHELBYVILLE    CLEAR     75  64  69 CALM      30.09S
$$

TNZ017-018-042-046-047-310100-
NORTHEAST TENNESSEE

CITY           SKY/WX    TMP DP  RH WIND       PRES   REMARKS
TRI CITIES     MOCLDY    74  52  46 W6        30.09S
ELIZABETHTON   CLEAR     64  61  88 CALM        N/A
$$

TNZ012-013-036-069-073-074-310100-
CENTRAL EAST TENNESSEE

CITY           SKY/WX    TMP DP  RH WIND       PRES   REMARKS
KNOXVILLE      CLOUDY    72  57  59 NE5       30.07S
OAK RIDGE      CLOUDY    74  59  59 CALM      30.09S
GATLINBURG     CLEAR     70  59  68 CALM      30.08S
$$

TNZ083-085-099-310100-
SOUTHEAST TENNESSEE

CITY           SKY/WX    TMP DP  RH WIND       PRES   REMARKS
CHATTANOOGA    MOCLDY    78  53  41 NE8       30.07S
$$

SKY/WX REPORTED AS FAIR MEANS FEW OR NO CLOUDS BELOW
12 THOUSAND FEET.




USA.gov is the U.S. government's official web portal to all federal, state and local government web resources and services.